Clarksburg, WV

5:03 PM EST on December 12, 2019 (GMT -0500)
Benedum

Weather History for KCKB - October, 2019

Change the Weather History Date:

Tuesday, October 22, 2019

  Actual Average Record
Temperature  
Mean Temperature 60 °F -  
Max Temperature 69 °F 62 °F 82 °F (1979)
Min Temperature 50 °F 36 °F 14 °F (1930)
Degree Days  
Heating Degree Days 5    
Month to date heating degree days 112  
Growing Degree Days 12 (Base 50)    
Moisture  
Dew Point 52 °F    
Average Humidity 70    
Maximum Humidity 87    
Minimum Humidity 53    
Precipitation  
Precipitation 0.30 in - - ()
Month to date precipitation 1.91  
Year to date precipitation 33.98  
Sea Level Pressure  
Sea Level Pressure 29.82 in    
Wind  
Wind Speed 6 mph (SW)    
Max Wind Speed 15 mph    
Max Gust Speed 21 mph    
Visibility 8 miles    
Events Rain    
Averages and records for this station are not official NWS values.
T = Trace of Precipitation, MM = Missing Value Source: NWS Daily Summary

Daily Weather History Graph

Daily Weather History Graph

Search for Another Location

Airport or City:

Astronomy

Oct. 22, 2019 Rise Set
Actual Time 7:37 AM EDT 6:32 PM EDT
Civil Twilight 7:10 AM EDT 6:59 PM EDT
Nautical Twilight 6:39 AM EDT 7:30 PM EDT
Astronomical Twilight 6:08 AM EDT 8:01 PM EDT
Moon 12:48 AM EDT (10/22) 3:37 PM EDT (10/22)
Length of Visible Light 11h 49m
Length of Day
10h 54m
Last Quarter, 37% of the Moon is Illuminated
Oct 22
Last Quarter
Oct 27
New
Nov 4
First Quarter
Nov 12
Full
Nov 19
Last Quarter

Hourly Weather History & Observations

Time (EDT) Temp. Dew Point Humidity Pressure Visibility Wind Dir Wind Speed Gust Speed Precip Events Conditions
12:53 AM 69.1 °F 52.0 °F 54% 29.83 in 10.0 mi SSE 6.9 mph - N/A   Clear
1:53 AM 68.0 °F 53.1 °F 59% 29.81 in 10.0 mi SSE 3.5 mph - N/A   Clear
2:53 AM 68.0 °F 53.1 °F 59% 29.79 in 10.0 mi South 5.8 mph - N/A   Scattered Clouds
3:53 AM 69.1 °F 54.0 °F 58% 29.74 in 10.0 mi SSE 6.9 mph - N/A   Overcast
4:53 AM 68.0 °F 54.0 °F 61% 29.76 in 10.0 mi WSW 3.5 mph - N/A   Overcast
5:53 AM 66.0 °F 55.0 °F 68% 29.76 in 10.0 mi Calm Calm - N/A   Overcast
6:53 AM 64.9 °F 55.0 °F 70% 29.75 in 10.0 mi Calm Calm - N/A   Overcast
7:53 AM 64.0 °F 55.0 °F 73% 29.74 in 10.0 mi WNW 5.8 mph - N/A   Overcast
8:53 AM 63.0 °F 57.9 °F 84% 29.80 in 10.0 mi West 10.4 mph - 0.00 in Rain Light Rain
9:05 AM 62.1 °F 57.0 °F 84% 29.85 in 4.0 mi West 12.7 mph 20.7 mph 0.03 in Rain Rain
9:44 AM 59.0 °F 55.0 °F 87% 29.85 in 4.0 mi West 6.9 mph 18.4 mph 0.10 in Rain Light Rain
9:53 AM 59.0 °F 55.0 °F 87% 29.83 in 4.0 mi West 6.9 mph - 0.10 in Rain Light Rain
10:02 AM 59.0 °F 55.0 °F 87% 29.86 in 4.0 mi WSW 6.9 mph - 0.01 in Rain Light Rain
10:17 AM 59.0 °F 55.0 °F 87% 29.87 in 3.0 mi SW 6.9 mph - 0.02 in Rain Light Rain
10:53 AM 60.1 °F 55.0 °F 83% 29.82 in 4.0 mi SSW 6.9 mph - 0.08 in Rain Rain
11:53 AM 59.0 °F 55.0 °F 87% 29.83 in 4.0 mi South 6.9 mph - 0.06 in Rain Rain
12:53 PM 59.0 °F 55.0 °F 87% 29.82 in 10.0 mi South 8.1 mph - 0.05 in Rain Light Rain
1:09 PM 59.0 °F 54.0 °F 83% 29.84 in 10.0 mi SSW 11.5 mph - 0.00 in Rain Light Rain
1:16 PM 59.0 °F 53.1 °F 81% 29.86 in 10.0 mi SW 12.7 mph - 0.01 in Rain Light Rain
1:53 PM 59.0 °F 54.0 °F 83% 29.81 in 10.0 mi WSW 9.2 mph - 0.01 in Rain Light Rain
2:53 PM 60.1 °F 53.1 °F 78% 29.76 in 10.0 mi SSW 6.9 mph - 0.00 in   Mostly Cloudy
3:24 PM 62.1 °F 54.0 °F 75% 29.79 in 10.0 mi WSW 10.4 mph - N/A   Mostly Cloudy
3:53 PM 63.0 °F 52.0 °F 67% 29.76 in 10.0 mi SSW 12.7 mph - N/A   Mostly Cloudy
4:01 PM 62.1 °F 51.1 °F 67% 29.80 in 10.0 mi SW 15.0 mph - N/A   Partly Cloudy
4:53 PM 64.0 °F 50.0 °F 60% 29.78 in 10.0 mi SSW 8.1 mph - N/A   Scattered Clouds
5:53 PM 61.0 °F 48.9 °F 64% 29.80 in 10.0 mi SSW 5.8 mph - N/A   Clear
6:53 PM 59.0 °F 48.9 °F 69% 29.81 in - North - - N/A   Partly Cloudy
7:53 PM 55.9 °F 48.0 °F 75% 29.84 in - North - - N/A   Clear
8:53 PM 54.0 °F 48.0 °F 80% 29.86 in - North - - N/A   Clear
9:53 PM 54.0 °F 43.0 °F 66% 29.88 in 10.0 mi WSW 6.9 mph - N/A   Clear
10:53 PM 54.0 °F 43.0 °F 66% 29.90 in - North - - N/A   Clear
11:53 PM 52.0 °F 42.1 °F 69% 29.91 in - North - - N/A   Clear